Little Rock, AR

3:23 AM CDT on September 22, 2017 (GMT -0500)
Adams

Weather History for KLIT - November, 2013

Change the Weather History Date:

Tuesday, November 5, 2013

  Actual Average Record
Temperature  
Mean Temperature 63 °F 57 °F  
Max Temperature 70 °F 66 °F 82 °F (1978)
Min Temperature 55 °F 48 °F 26 °F (1991)
Degree Days  
Heating Degree Days 2 9  
Month to date heating degree days 42 41  
Since 1 July heating degree days 156 176  
Cooling Degree Days 0 1  
Month to date cooling degree days 0 5  
Year to date cooling degree days 2194 2163  
Growing Degree Days 12 (Base 50)    
Moisture  
Dew Point 54 °F    
Average Humidity 73    
Maximum Humidity 86    
Minimum Humidity 59    
Precipitation  
Precipitation T in 0.16 in 1.78 in (1997)
Month to date precipitation T 0.80  
Year to date precipitation 41.12 40.43  
Snow  
Snow 0.00 in 0.00 in T in (1995)
Month to date snowfall 0.0 0.0  
Since 1 July snowfall 0.0 T  
Since 1 September snowfall 0.0 T  
Snow Depth 0.00 in    
Sea Level Pressure  
Sea Level Pressure 30.15 in    
Wind  
Wind Speed 8 mph (SE)    
Max Wind Speed 18 mph    
Max Gust Speed 22 mph    
Visibility 10 miles    
Events Rain    
T = Trace of Precipitation, MM = Missing Value Source: NWS Daily Summary

Daily Weather History Graph

Daily Weather History Graph

Search for Another Location

Airport or City:

Trip Planner

Search our weather history database for the weather conditions in past years. The results will help you decide how hot, cold, wet, or windy it might be!

Date:

Astronomy

Nov. 05, 2013 Rise Set
Actual Time 6:33 AM CST 5:11 PM CST
Civil Twilight 6:07 AM CST 5:37 PM CST
Nautical Twilight 5:37 AM CST 6:07 PM CST
Astronomical Twilight 5:07 AM CST 6:36 PM CST
Moon 8:45 AM CST (11/5) 7:16 PM CST (11/5)
Length of Visible Light 11h 30m
Length of Day
10h 37m
Waxing Crescent, 7% of the Moon is Illuminated
Nov 5
Waxing Crescent
Nov 9
First Quarter
Nov 17
Full
Nov 25
Last Quarter
Dec 2
New

Hourly Weather History & Observations

Time (CST) Temp. Dew Point Humidity Pressure Visibility Wind Dir Wind Speed Gust Speed Precip Events Conditions
12:53 AM 55.0 °F 52.0 °F 89% 30.22 in 10.0 mi Calm Calm - 0.00 in   Overcast
1:53 AM 55.9 °F 52.0 °F 87% 30.20 in 10.0 mi East 4.6 mph - 0.00 in   Overcast
2:53 AM 55.9 °F 51.1 °F 84% 30.20 in 10.0 mi East 3.5 mph - N/A   Overcast
3:53 AM 55.9 °F 51.1 °F 84% 30.20 in 10.0 mi East 3.5 mph - 0.00 in   Overcast
4:53 AM 55.0 °F 52.0 °F 89% 30.22 in 10.0 mi Calm Calm - 0.00 in Rain Light Rain
5:53 AM 55.0 °F 52.0 °F 89% 30.22 in 10.0 mi ENE 4.6 mph - 0.00 in   Overcast
6:53 AM 55.0 °F 52.0 °F 89% 30.22 in 10.0 mi NE 4.6 mph - 0.00 in Rain Light Rain
7:53 AM 57.0 °F 52.0 °F 83% 30.22 in 10.0 mi East 6.9 mph - 0.00 in   Overcast
8:53 AM 59.0 °F 51.1 °F 75% 30.23 in 10.0 mi SE 9.2 mph - 0.00 in   Overcast
9:53 AM 61.0 °F 52.0 °F 72% 30.22 in 10.0 mi SE 10.4 mph 17.3 mph N/A   Mostly Cloudy
10:53 AM 64.0 °F 53.1 °F 67% 30.20 in 10.0 mi SSE 11.5 mph - N/A   Mostly Cloudy
11:53 AM 66.0 °F 53.1 °F 63% 30.18 in 10.0 mi SE 9.2 mph 17.3 mph N/A   Overcast
12:53 PM 66.0 °F 54.0 °F 65% 30.14 in 10.0 mi SE 11.5 mph 19.6 mph N/A   Overcast
1:53 PM 68.0 °F 54.0 °F 61% 30.12 in 10.0 mi SE 13.8 mph - N/A   Overcast
2:53 PM 69.1 °F 55.0 °F 61% 30.11 in 10.0 mi SE 13.8 mph - N/A   Mostly Cloudy
3:53 PM 69.1 °F 55.0 °F 61% 30.10 in 10.0 mi SSE 15.0 mph - N/A   Mostly Cloudy
4:53 PM 66.9 °F 55.9 °F 68% 30.09 in 10.0 mi SE 5.8 mph - N/A   Mostly Cloudy
5:53 PM 66.9 °F 55.9 °F 68% 30.10 in 10.0 mi SE 8.1 mph - N/A   Mostly Cloudy
6:53 PM 66.0 °F 55.9 °F 70% 30.09 in 10.0 mi SE 10.4 mph - N/A   Overcast
7:53 PM 66.0 °F 55.9 °F 70% 30.09 in 10.0 mi SE 9.2 mph - N/A   Overcast
8:53 PM 64.9 °F 55.9 °F 73% 30.10 in 10.0 mi SE 8.1 mph - N/A   Overcast
9:53 PM 64.9 °F 55.9 °F 73% 30.09 in 10.0 mi SE 10.4 mph - N/A   Mostly Cloudy
10:53 PM 64.9 °F 55.9 °F 73% 30.09 in 10.0 mi SSE 11.5 mph - N/A   Mostly Cloudy
11:53 PM 64.0 °F 57.0 °F 78% 30.07 in 10.0 mi SE 13.8 mph - N/A   Overcast